Regional Weather Roundup
Issued by NWS

Home | Current Version | Previous Version | Text Only | Print | Product List | Glossary On
Versions: 1 2 3 4 5 6 7 8 9 10 11 12 13 14 15 16 17 18 19 20 21 22 23 24 25 26 27 28 29 30 31 32 33 34 35 36 37 38 39 40 41 42 43 44 45 46 47 48 49 50
000
ASHW40 PHFO 031643
RWRHI

WEATHER ROUNDUP FOR HAWAII
NATIONAL WEATHER SERVICE HONOLULU HI
600 AM HST TUE MAR 03 2015

THIS IS AN AUTOMATED REPORT THAT HAS NOT BEEN QUALITY CONTROLLED.

NOTE..."FAIR" INDICATES FEW OR NO CLOUDS BELOW 12,000 FEET WITH NO
SIGNIFICANT WEATHER AND/OR OBSTRUCTIONS TO VISIBILITY.

* - THESE SITES REPORT LIMITED FIELDS

HIZ001>004-031700-
KAUAI-NIIHAU-

CITY           SKY/WX    TMP DP  RH WIND       PRES   REMARKS
LIHUE APT      PTCLDY    73  65  75 N20       30.05S
PORT ALLEN*      N/A     68 N/A N/A N7          N/A
POIPU*         NOT AVBL
PRINCEVILLE*     N/A     72 N/A N/A MISG        N/A
KOKOLE POINT*  NOT AVBL
MOLOAA DAIRY*  NOT AVBL
WAIMEA HTS*    NOT AVBL
PUU OPAE*        N/A    N/A N/A N/A CALM        N/A
PUU LUA*       NOT AVBL
MAKAHA RIDGE*  NOT AVBL
$$

HIZ005>011-031700-
OAHU-

CITY           SKY/WX    TMP DP  RH WIND       PRES   REMARKS
HONOLULU       PTCLDY    73  65  75 N3        30.00S
KALAELOA       CLOUDY    71  64  78 VRB5      30.01F
KANEOHE MCB    CLOUDY    74  67  78 NE10      30.00F
WHEELER FIELD  FAIR      67  64  90 NW7       30.01F
BELLOWS*         N/A    N/A N/A N/A NE16        N/A
KAHUKU*          N/A    N/A N/A N/A NE6G12      N/A
WHEELER*       NOT AVBL
WAIANAE HARBOR NOT AVBL
DILLINGHAM*      N/A     66  64  94 MISG        N/A
KAHUKU TRN*      N/A     70  66  88 E6G16       N/A
KAWAILOA*        N/A     66  64  94 NE8G17      N/A
KII*             N/A     73  68  83 NE14G21     N/A
MAKUA RANGE*     N/A     73  66  78 E14G22      N/A
OAHU FOREST NW   N/A    N/A N/A N/A CALM        N/A
SCHOFIELD BRK*   N/A    N/A N/A N/A MISG        N/A
SCHOFIELD S*   NOT AVBL
WAIANAE VLY*     N/A     72  63  73 NE9G28      N/A
KUAOKALA*        N/A     70  66  88 CALM        N/A
HONOULIUULI*   NOT AVBL
MOKUOLOE IS*     N/A    N/A N/A N/A MISG        N/A
PALEHUA*         N/A     75  64  69 CALM        N/A
WAIAWA PHB*    NOT AVBL
$$

HIZ012>013-031700-
MOLOKAI-

CITY           SKY/WX    TMP DP  RH WIND       PRES   REMARKS
MOLOKAI AIRPT  CLOUDY    69  69 100 N10G20    30.01F
KALAUPAPA      NOT AVBL
MAKAPULAPAI*     N/A     73  68  83 E16G22      N/A
MOLOKAI 1*       N/A    N/A N/A N/A NE7G18      N/A
PUU ALII*        N/A     57  57 100 E2G9        N/A
$$

HIZ016-031700-
KAHOOLAWE-

CITY           SKY/WX    TMP DP  RH WIND       PRES   REMARKS
KAHOOLAWE*       N/A     66 N/A N/A NE9         N/A
HAKIOAWA*        N/A     69  68  95 MISG      30.43R
HONOKANAIA*      N/A     73  66  79 N12G21      N/A
KANELOA*         N/A     72  64  78 MISG      29.22F
KEALIALALO*    NOT AVBL
LUA MAKIKA*    NOT AVBL
$$

HIZ014>015-031700-
LANAI-

CITY           SKY/WX    TMP DP  RH WIND       PRES   REMARKS
LANAI CITY     FAIR      68  67  96 NE21G29   30.04S
LANAI 1*         N/A     68  68 100 NE21G32     N/A
$$

HIZ017>028-031700-
MAUI-

CITY           SKY/WX    TMP DP  RH WIND       PRES   REMARKS
KAHULUI        PTCLDY    72  67  84 NE12      30.02S
KAPALUA-W MAUI PTCLDY    70  64  83 NE14      30.01
HANA AIRPORT   MOCLDY    68  68 100 CALM      30.05F
HANA*            N/A     70 N/A N/A S2          N/A
HALEAKALA SUMM   N/A     39  18  41 E8G24       N/A
MAALAEA BAY*   NOT AVBL
HALEAKALA*     NOT AVBL
KAUPO GAP*       N/A     57  45  62 NW9         N/A
KULA 1*          N/A     48  34  57 SE6         N/A
$$

HIZ023>026-031700-
BIG ISLAND OF HAWAII COAST AND LOWER SLOPES-

CITY           SKY/WX    TMP DP  RH WIND       PRES   REMARKS
KAILUA KONA    PTCLDY    71  63  75 NE5       29.96S
HILO           MOCLDY    67  63  87 SW6       30.01S
HONOKAA*       NOT AVBL
KAWAIHAE MWT*    N/A     72 N/A N/A NE5         N/A
KAWAIHAE*        N/A     73 N/A N/A N2          N/A
SOUTH POINT*     N/A     66 N/A N/A N10         N/A
UPOLU AIRPORT*   N/A    N/A N/A N/A NE12        N/A
KAMUELA*       MOSUNNY   61  61 100 NE16      30.08S
HAKALAU*         N/A     41  39  93 W3          N/A
KALOKO-HONOKO*   N/A     70  63  78 NE5       29.96R
PALI 2*          N/A     63  57  82 N12G18      N/A
KEALAKOMO*       N/A     75  63  64 VRB18G31    N/A
KAUPULEHU*       N/A     64  57  77 SE8         N/A
KAPAPALA*        N/A     58  55  89 N3G9        N/A
LOWER KAHUKU*    N/A     57  52  82 VRB3G9      N/A
PUHE CS*         N/A     72  63  73 NE3         N/A
PUHO CS*         N/A     70  57  63 E3          N/A
PTA KEAMUKU*     N/A     57  48  72 CALM        N/A
WAIKOLOA*        N/A     66  57  72 E15         N/A
$$

HIZ027>028-031700-
BIG ISLAND OF HAWAII INTERIOR AND SUMMMITS-

CITY           SKY/WX    TMP DP  RH WIND       PRES   REMARKS
BRADSHAW FIELD CLOUDY    44  37  77 SE3       30.28S
MK VISITOR CEN   N/A      0   0 100 MISG        N/A
MAUNA KEA*       N/A     28  -2  26 S3          N/A
MAUNA LOA*       N/A    N/A N/A N/A MISG        N/A
MAUNA LOA 1*   NOT AVBL
PTA KIPUKA*      N/A     46  41  81 E3          N/A
PTA RANGE 17*    N/A     46  41  81 E7          N/A
PTA WEST*        N/A     50  45  81 SE13        N/A
NENE CABIN*      N/A    N/A N/A N/A N5          N/A
AHUMOA*          N/A     50  37  60 E9          N/A
PTA PORTABLE*  NOT AVBL
PUU MALI*      NOT AVBL
$$

HIC003-031700-
NORTHWEST ISLANDS-

CITY           SKY/WX    TMP DP  RH WIND       PRES   REMARKS
MIDWAY ISLAND  MOCLDY    61  54  77 E17G23    30.39F
MIDWAY NOS*    NOT AVBL
FRENCH FRIGATE NOT AVBL
$$

PHZ110>124-180-031700-
BUOY REPORTS

STATION/POSITION TIME  TEMP    WIND        PRES    WAVE   SWELL
                       AIR SEA DIR/SP/G            HT/PER HT/DIR
                 (UTC) (F)     (DEG/KT/KT) (MB)    (FT/S) (FT/D)
BUOY 51001       NOT AVBL
BUOY 51101       1600   69 71   40/ 19/ 23 1019.4R  10/ 8   5/340
BUOY 51100       1600   73 75  180/  6/  8 1017.3R
BUOY 51003       1600   76 78   60/ 14/ 17 1015.0R   8/12   7
BUOY 51004       1511   77 78   70/ 14/ 16 1013.8R   8/14   7/340
BARBERS PT BUOY  NOT AVBL
WAIMEA BAY BUOY  1600      77                N/A     8/11   5/320
KAILUA BAY BUOY  1600      77                N/A     7/13   3/350
LANAI BUOY       1600      76                N/A     4/12   3/280
BARBERS PT 2     1600      77                N/A     4/14   2/200
PAUWELA MAUI     1600      75                N/A     9/13   5/340
HILO             1600      76                N/A     7/11   3/ 20
KANEOHE BAY BUOY 1600      77                N/A     6/13   3/350
HANALEI KAUAI    NOT AVBL
KAHULUI HARBOR   1600   74      20/  9/ 11   N/A
HONOLULU HARBOR  1600   75      CALM  / 12   N/A
KILO NALU        NOT AVBL
HILO HARBOR      1600   69     200/  2/  3   N/A
MOKUOLOE         1600      77              1016.6
NAWILIWILI       1600   72      10/  8/ 16   N/A
WHOTS BUOY       NOT AVBL
BUOY 51028       NOT AVBL
$$

......................KEY........................................
  SKY/WX - SKY CONDITIONS/PRESENT WEATHER
  TMP    - TEMPERATURE IN FAHRENHEIT
  DWPT   - DEWPOINT IN FAHRENHEIT
  RH     - RELATIVE HUMIDITY IN PERCENT
  WIND   - DIRECTION AND SPEED /MPH FOR ISLANDS...KTS FOR BUOYS/
  PRES   - MEAN SEA LEVEL PRESSURE IN INCHES OF HG
  VSB    - VISIBILITY IN MILES
  HX     - HEAT INDEX
  WCI    - WIND CHILL INDEX
  VRB    - VARIABLE WIND DIRECTION
  N/A    - NOT AVAILABLE


USA.gov is the U.S. government's official web portal to all federal, state and local government web resources and services.